Location: downtown San Diego
(32.7310°N, 117.1990°W)
Time: 06:37:03
(UTC-07:00)

Meteor 1-22 Rocket - Pass Details

Date: 14 June 2018
Orbit: 786 x 941 km, 81.2° (Epoch: 17 June)

Event Time Altitude Azimuth Distance (km) Brightness Sun altitude
Rises 20:29:16 0° 355° (N) 3,293 7.9 -6.5°
Reaches altitude 10° 20:31:38 10° 357° (N) 2,370 7.1 -6.9°
Maximum altitude 20:36:57 71° 81° (E) 859 4.1 -7.8°
Drops below altitude 10° 20:42:25 10° 166° (SSE) 2,433 6.2 -8.8°
Enters shadow 20:44:27 - 168° (SSE) 3,224 6.8 -9.1°
